Погода в Тихорецке

Погода в Тихорецке : погода сейчас, прогноз погоды и архив. Всё, что Вы хотите узнать о погоде в Тихорецке!

Хотите узнать прогноз погоды в Тихорецке? Тогда Вам сюда: Погода в Тихорецке

Поиск расширенной информации на нашем сайте:

Другие новости

Новости СМИ2

Главная страница сайта

Новости сайта

02.10.2013

Напоминаем, что на нашем новом сайте вы можете получить высокодетализированные прогнозы погоды по пунктам России, СНГ и мира (включающие важные для авиации метеовеличины, такие как направление и скорость ветра, видимость, явления погоды, количество и форма облачности, нижняя и верхняя граница облачности), а также ознакомиться с разнообразными материалами по авиационной метеорологии и подборкой полезных ссылок на эту тему.

Сайт Метеоцентр.Азия посвящён разработке технологий оптимизации авиаметеорологического обслуживания, включая проектирование и перспективное создание нескольких автоматизированных авиаметеорологических систем:
- система выпуска высокодетальных прогностических карт явлений погоды для нижнего воздушного пространства по России и ближнему зарубежью;
- система верификации прогнозов TAF (выпускаемых синоптиками официальных АМСГ РФ и ближнего зарубежья) и AUTOTAF (выпускаемых сайтом Метеоцентр.Азия) - выявление ошибок, онлайн-сопоставление с фактической погодой METAR, автоматическое внесение коррективов в прогнозы при резком отклонении фактической погоды от прогноза, подсчёт оправдываемости прогнозов по элементам и в целом;
- система обработки, анализа и отображения авиаметеорологической информации для применения провайдерами метеорологической информации.


Погода в Тихорецке - сегодня

Время (UTC), дата Ветер
(°,м/с) 
Видим.   Явления Облачность Т
(°С)
Тd
(°С)
f(%) Тe
(°С)
Pmin
(гПа)
dP
(гПа)
Po
(мм)
O2
(г/м3)
Тmin Tmax R s Состояние
почвы
18 22.05.17 280 (З) 10 км    10/10 1000 м кучево-дожд. 
[Cb cap]
+14.3 +10.4 77 +18  1011  1.2  751  286           
21 22.05.17 тихо ()   10 км    10/0 
[]
+13 +10.5 85 +15  1011.4  0.4  752  287           
00 23.05.17 220 (ЮЗ) 10 км    10/0 средняя 
[Ac und]
+12.3 +10.9 91 +16  1011.5  0.4  752  288           
03 23.05.17 250 (З) 10 км    10/10 1000 м кучево-дожд. 
[Cb cap]
+12.9 +11.6 92 +17  1012.4  0.9  752  287  +12.2        влажная 
06 23.05.17 360 (С) 10 км    10/10 600 м кучево-дожд. 
[Cb cap]
+15.2 +10.9 75 +19  1013.7  1.3  753  286           
09 23.05.17 050 (СВ) 10 км    10/10 1000 м кучево-дожд. 
[Cb cap]
+15.9 +10.9 72 +18  1014.8  1.1  754  285           
12 23.05.17 030 (СВ) 10 км    5/0 кучево-дожд. 
[Cb cap]
+16.3 +9.8 65 +17  1014.9  0.2  754  285           
15 23.05.17 050 (СВ) 10 км    10/10 1000 м 
[Sc]
+17 +7.8 55 +18  1014.9  754  285    +17.2       
18 23.05.17 030 (СВ) 20000 м    10/10 1000 м кучево-дожд. 
[Cb cap]
+14.5 +7.8 64 +16  1016.4  1.4  755  288           
21 23.05.17 010 (С) 10 км    10/10 1000 м 
[Ac und]
+13.3 +9.1 76 +15  1017.6  1.2  756  289           
00 24.05.17 тихо ()   н/о    н/о 
+10.3 +8.6 89 +10  1018.1  0.4  756  292           
03 24.05.17 360 (С) 10 км  {ливн. осадки}  10/10 1000 м 
[Sc diur, vesp]
+11 +7.6 80 +12  1017.7  -0.3  756  292  +10.1      влажная 
06 24.05.17 030 (СВ) 10 км  в посл. час ливневой дождь  10/10 600 м кучево-дожд. 
[Cb cap]
+13.1 +7.2 67 +14  1018.6  0.9  757  290           
09 24.05.17 тихо ()   10 км    10/10 600 м 
[Sc diur, vesp]
+14.1 +6.6 61 +14  1019.4  0.8  758  289           
12 24.05.17 160 (Ю) 10 км    10/10 600 м 
[Sc diur, vesp]
+15.1 +9.5 69 +16  1019.5  0.2  758  288           
15 24.05.17 160 (Ю) 10 км    10/10 600 м 
[Sc]
+12.7 +8.9 78 +13  1019.6  758  290    +15.6  0.8     
18 24.05.17 тихо ()   10 км    10/10 600 м 
[Sc]
+11.2 +8.8 85 +11  1020.8  1.1  758  292           
21 24.05.17 070 (В) 10 км  слаб. ливневой дождь  10/10 600 м кучево-дожд. 
[Cb cap]
+11 +7.5 79 +11  1020.8  0.1  758  293           
00 25.05.17 050 (СВ) 10 км  {ливн. осадки}  10/10 600 м 
[]
+9.8 +8.3 90 +11  1019.9  0.1  758  293           
03 25.05.17 010 (С) 10 км    10/10 1000 м 
[Sc]
+10.2 +8.9 92 +11  1019.9  758  293  +9.8       
06 25.05.17 050 (СВ) 10 км    10/10 600 м кучево-дожд. 
[Cb cap]
+12.7 +8.8 77 +13  1020  0.2  758  290           
09 25.05.17 090 (В) 1000 м    10/10 600 м кучево-дожд. 
[Cb cap]
+14.3 +9 70 +16  1019.4  -0.3  758  288           
12 25.05.17 140 (ЮВ) 10 км    10/10 1000 м кучево-дожд. 
[Cb cap]
+16.6 +8.8 60 +18  1018.8  -0.5  757  286           
15 25.05.17 160 (Ю) 10 км    4/4 1000 м средняя 
[Ac cuf]
+17.8 +8.2 53 +19  1018.2  -0.6  757  285    +19  0.3     
18 25.05.17 070 (В) 10 км    6/0 средняя 
[Ac cuf]
+11.9 +8.6 80 +13  1018.4  0.1  757  291           
Время (UTC), дата Ветер
(°,м/с) 
Видим.   Явления Облачность Т
(°С)
Тd
(°С)
f(%) Тe
(°С)
Pmin
(гПа)
dP
(гПа)
Po
(мм)
O2
(г/м3)
Тmin Tmax R s Состояние
почвы

Для получения пояснительной информации подведите курсор к названию столбца.

ПОГОДА в Тихорецке - архив

Всё, что Вы хотите узнать о погоде в Тихорецке - удобно и подробно!

Выберите нужную дату (начиная с 1 января 2015* года) и нажмите кнопку "Найти".
Будут отображены архивные сводки погоды по пункту Тихорецк, начиная с указанной даты.


Отображать данные в формате CSV (для использования в таблицах Excel)


Внимание! Наш архив погоды предназначен исключительно для личного некоммерческого использования в познавательных целях. Если Вам необходимы официальные справки о состоянии погоды (для производственных, юридических, коммерческих и т.п. целей), обращайтесь в органы Росгидромета.

*Примечание: данная дата относится к архиву по метеостанциям СССР (Россия, СНГ, Балтия).
Архив по метеостанциям Зарубежной Европы и Азии (кроме Китая) хранится 10 дней, по другим регионам земного шара (Китай, Африка, Америка, Австралия, Океания) - 1 день.

Тихорецк - район местоположения метеостанции


Название, широта, долгота, высота метеостанции:
Тихорецк 45.9°ш. 40.1°д. 78 м над ур. моря [Российская Федерация]

Дополнительная информация

В oтличие oт бoльшинства пoгoдных сайтoв мы публикуем пoдрoбную метеoинфoрмацию в детальнoм прoфессиoнальнoм фoрмате.

Характеристики температуры и влажнoсти вoздуха измеряются на высoте 2 м в тени вдали oт зданий и деревьев.
Скoрoсть ветра измеряется на высoте 10 м (на урoвне рoста челoвека скoрoсть ветра ниже в 1.5-2 раза). Если метеoстанция нахoдится в гoрoде или в лесу, тo скoрoсть ветра занижена на 2-4 м/с пo сравнению с oткрытым местoм. Скoрoсть ветра над акватoриями крупных рек и oзёр, а также на вершинах хoлмoв на 2-5 м/с выше, чем в oбычных услoвиях.
Атмoсфернoе давление в разных тoчках местнoсти мoжет значительнo oтличаться oт давления на метеoстанции, в зависимoсти oт услoвий рельефа (при пoдъёме на 10 м давление пoнижается примернo на 1 мм рт.ст.).